| time (UTC) | temp C | wind direction | speed KPH | gust KPH | rain 1hr cm | rain 24hr cm | rain mn cm | humidity % | barometer mb |
| 20260503181334 | 16 | 331 | 3.2 | 4.8 | 0.00 | 0.00 | 0.00 | 81 | 1017.9 |
| 20260503180833 | 16 | 34 | 0.0 | 4.8 | 0.00 | 0.00 | 0.00 | 80 | 1017.9 |
| 20260503180333 | 16 | 75 | 1.6 | 4.8 | 0.00 | 0.00 | 0.00 | 80 | 1018.0 |
| 20260503175825 | 16 | 58 | 0.0 | 4.8 | 0.00 | 0.00 | 0.00 | 80 | 1018.0 |
| 20260503175324 | 16 | 79 | 1.6 | 4.8 | 0.00 | 0.00 | 0.00 | 80 | 1018.0 |
| 20260503174839 | 17 | 107 | 1.6 | 3.2 | 0.00 | 0.00 | 0.00 | 80 | 1018.0 |
| 20260503174342 | 17 | 57 | 1.6 | 4.8 | 0.00 | 0.00 | 0.00 | 79 | 1018.0 |
| 20260503173842 | 17 | 76 | 1.6 | 4.8 | 0.00 | 0.00 | 0.00 | 79 | 1018.0 |
| 20260503173337 | 17 | 84 | 3.2 | 4.8 | 0.00 | 0.00 | 0.00 | 79 | 1017.9 |
| 20260503172836 | 17 | 101 | 1.6 | 3.2 | 0.00 | 0.00 | 0.00 | 78 | 1018.0 |
| 20260503172334 | 17 | 74 | 1.6 | 4.8 | 0.00 | 0.00 | 0.00 | 78 | 1018.1 |
| 20260503171830 | 17 | 58 | 1.6 | 6.4 | 0.00 | 0.00 | 0.00 | 78 | 1018.1 |
| 20260503171328 | 17 | 111 | 3.2 | 6.4 | 0.00 | 0.00 | 0.00 | 77 | 1018.1 |
| 20260503170827 | 17 | 63 | 1.6 | 9.7 | 0.00 | 0.00 | 0.00 | 78 | 1018.1 |
| 20260503170325 | 17 | 78 | 3.2 | 9.7 | 0.00 | 0.00 | 0.00 | 77 | 1018.1 |
| 20260503150832 | 18 | 101 | 4.8 | 14.5 | 0.00 | 0.00 | 0.00 | 68 | 1018.5 |
| 20260503150326 | 18 | 134 | 4.8 | 14.5 | 0.00 | 0.00 | 0.00 | 67 | 1018.5 |
| 20260503131343 | 17 | 59 | 4.8 | 11.3 | 0.00 | 0.00 | 0.00 | 66 | 1019.4 |
| 20260503130834 | 18 | 109 | 8.0 | 12.9 | 0.00 | 0.00 | 0.00 | 65 | 1019.6 |
| 20260503130333 | 18 | 115 | 4.8 | 12.9 | 0.00 | 0.00 | 0.00 | 66 | 1019.6 |
| 20260503110825 | 18 | 108 | 9.7 | 17.7 | 0.00 | 0.00 | 0.00 | 66 | 1020.1 |
| 20260503110340 | 18 | 140 | 9.7 | 16.1 | 0.00 | 0.00 | 0.00 | 60 | 1020.2 |
| 20260503090326 | 17 | 153 | 6.4 | 12.9 | 0.00 | 0.00 | 0.00 | 76 | 1020.3 |
| 20260503081327 | 17 | 72 | 4.8 | 11.3 | 0.00 | 0.00 | 0.00 | 73 | 1020.2 |
| 20260503080843 | 17 | 100 | 3.2 | 11.3 | 0.00 | 0.00 | 0.00 | 74 | 1020.2 |
| 20260503080342 | 17 | 132 | 6.4 | 11.3 | 0.00 | 0.00 | 0.00 | 73 | 1020.2 |
| 20260503072837 | 17 | 167 | 3.2 | 8.0 | 0.00 | 0.00 | 0.00 | 72 | 1019.8 |
| 20260503072333 | 17 | 155 | 4.8 | 11.3 | 0.00 | 0.00 | 0.00 | 70 | 1019.9 |
| 20260503071829 | 17 | 132 | 3.2 | 6.4 | 0.00 | 0.00 | 0.00 | 69 | 1019.9 |
| 20260503071328 | 17 | 126 | 3.2 | 9.7 | 0.00 | 0.00 | 0.00 | 68 | 1019.8 |
| 20260503070824 | 17 | 172 | 3.2 | 9.7 | 0.00 | 0.00 | 0.00 | 68 | 1019.8 |
| 20260503070341 | 17 | 143 | 1.6 | 6.4 | 0.00 | 0.00 | 0.00 | 67 | 1019.9 |
| 20260503060325 | 15 | 26 | 3.2 | 4.8 | 0.00 | 0.00 | 0.00 | 72 | 1019.8 |
| 20260503054832 | 13 | 348 | 1.6 | 6.4 | 0.00 | 0.00 | 0.00 | 77 | 1019.8 |
| 20260503054331 | 13 | 346 | 1.6 | 6.4 | 0.00 | 0.00 | 0.00 | 77 | 1019.9 |
| 20260503053844 | 12 | 348 | 3.2 | 6.4 | 0.00 | 0.00 | 0.00 | 79 | 1019.8 |
| 20260503053339 | 12 | 331 | 4.8 | 6.4 | 0.00 | 0.00 | 0.00 | 80 | 1019.8 |
| 20260503052832 | 12 | 330 | 4.8 | 8.0 | 0.00 | 0.00 | 0.00 | 80 | 1019.8 |
| 20260503052326 | 12 | 327 | 6.4 | 8.0 | 0.00 | 0.00 | 0.00 | 80 | 1019.7 |
| 20260503051844 | 12 | 323 | 6.4 | 8.0 | 0.00 | 0.00 | 0.00 | 80 | 1019.7 |
| 20260503051340 | 12 | 324 | 4.8 | 8.0 | 0.00 | 0.00 | 0.00 | 80 | 1019.7 |
| 20260503050839 | 12 | 319 | 6.4 | 8.0 | 0.00 | 0.00 | 0.00 | 79 | 1019.6 |
| 20260503050337 | 12 | 321 | 6.4 | 8.0 | 0.00 | 0.00 | 0.00 | 79 | 1019.7 |
| 20260503045837 | 12 | 327 | 6.4 | 8.0 | 0.00 | 0.00 | 0.00 | 79 | 1019.7 |
| 20260503045334 | 12 | 319 | 6.4 | 8.0 | 0.00 | 0.00 | 0.00 | 79 | 1019.7 |
| 20260503044829 | 11 | 317 | 4.8 | 8.0 | 0.00 | 0.00 | 0.00 | 80 | 1019.7 |
| 20260503044326 | 11 | 320 | 4.8 | 8.0 | 0.00 | 0.00 | 0.00 | 80 | 1019.7 |
| 20260503043840 | 11 | 338 | 4.8 | 8.0 | 0.00 | 0.00 | 0.00 | 79 | 1019.7 |
| 20260503043335 | 11 | 9 | 6.4 | 8.0 | 0.00 | 0.00 | 0.00 | 80 | 1019.7 |
| 20260503042831 | 11 | 338 | 3.2 | 8.0 | 0.00 | 0.00 | 0.00 | 79 | 1019.6 |
| 20260503042327 | 11 | 333 | 4.8 | 8.0 | 0.00 | 0.00 | 0.00 | 80 | 1019.7 |
| 20260503041824 | 11 | 335 | 4.8 | 8.0 | 0.00 | 0.00 | 0.00 | 79 | 1019.6 |
| 20260503041339 | 11 | 338 | 6.4 | 8.0 | 0.00 | 0.00 | 0.00 | 79 | 1019.5 |
| 20260503040836 | 11 | 326 | 6.4 | 8.0 | 0.00 | 0.00 | 0.00 | 79 | 1019.6 |
| 20260503040333 | 11 | 334 | 6.4 | 8.0 | 0.00 | 0.00 | 0.00 | 78 | 1019.6 |
| 20260503035827 | 11 | 344 | 4.8 | 9.7 | 0.00 | 0.00 | 0.00 | 78 | 1019.6 |
| 20260503035326 | 11 | 340 | 8.0 | 9.7 | 0.00 | 0.00 | 0.00 | 78 | 1019.7 |
| 20260503034839 | 11 | 327 | 8.0 | 9.7 | 0.00 | 0.00 | 0.00 | 78 | 1019.7 |
| 20260503034338 | 11 | 322 | 8.0 | 9.7 | 0.00 | 0.00 | 0.00 | 78 | 1019.6 |
| 20260503033835 | 11 | 329 | 6.4 | 8.0 | 0.00 | 0.00 | 0.00 | 77 | 1019.7 |
| 20260503033330 | 11 | 322 | 6.4 | 8.0 | 0.00 | 0.00 | 0.00 | 77 | 1019.7 |
| 20260503032827 | 11 | 336 | 6.4 | 9.7 | 0.00 | 0.00 | 0.00 | 77 | 1019.7 |
| 20260503032325 | 11 | 331 | 8.0 | 9.7 | 0.00 | 0.00 | 0.00 | 77 | 1019.7 |
| 20260503031844 | 11 | 317 | 8.0 | 8.0 | 0.00 | 0.00 | 0.00 | 77 | 1019.7 |
| 20260503031342 | 12 | 317 | 6.4 | 8.0 | 0.00 | 0.00 | 0.00 | 76 | 1019.7 |
| 20260503030836 | 12 | 327 | 6.4 | 9.7 | 0.00 | 0.00 | 0.00 | 75 | 1019.7 |
| 20260503030332 | 12 | 326 | 6.4 | 9.7 | 0.00 | 0.00 | 0.00 | 75 | 1019.8 |
| 20260503025825 | 12 | 327 | 6.4 | 8.0 | 0.00 | 0.00 | 0.00 | 75 | 1019.8 |
| 20260503025324 | 12 | 322 | 4.8 | 8.0 | 0.00 | 0.00 | 0.00 | 76 | 1019.8 |
| 20260503024842 | 12 | 340 | 6.4 | 8.0 | 0.00 | 0.00 | 0.00 | 76 | 1019.8 |
| 20260503024339 | 11 | 322 | 6.4 | 8.0 | 0.00 | 0.00 | 0.00 | 76 | 1019.9 |
| 20260503023836 | 11 | 324 | 6.4 | 8.0 | 0.00 | 0.00 | 0.00 | 76 | 1019.8 |
| 20260503023332 | 11 | 331 | 4.8 | 9.7 | 0.00 | 0.00 | 0.00 | 76 | 1019.9 |
| 20260503022829 | 11 | 328 | 6.4 | 9.7 | 0.00 | 0.00 | 0.00 | 75 | 1020.0 |
| 20260503022329 | 11 | 321 | 6.4 | 9.7 | 0.00 | 0.00 | 0.00 | 75 | 1019.8 |
| 20260503021840 | 11 | 319 | 6.4 | 9.7 | 0.00 | 0.00 | 0.00 | 75 | 1019.9 |
| 20260503021336 | 11 | 321 | 6.4 | 8.0 | 0.00 | 0.00 | 0.00 | 75 | 1019.9 |
| 20260503020827 | 11 | 339 | 3.2 | 8.0 | 0.00 | 0.00 | 0.00 | 75 | 1019.8 |
| 20260503020324 | 11 | 15 | 3.2 | 9.7 | 0.00 | 0.00 | 0.00 | 75 | 1019.9 |
| 20260503015839 | 12 | 322 | 8.0 | 9.7 | 0.00 | 0.00 | 0.00 | 74 | 1019.9 |
| 20260503015334 | 12 | 319 | 8.0 | 9.7 | 0.00 | 0.00 | 0.00 | 74 | 1020.0 |
| 20260503014833 | 12 | 321 | 6.4 | 8.0 | 0.00 | 0.00 | 0.00 | 74 | 1019.9 |
| 20260503014329 | 12 | 319 | 6.4 | 8.0 | 0.00 | 0.00 | 0.00 | 74 | 1019.9 |
| 20260503013826 | 12 | 321 | 6.4 | 8.0 | 0.00 | 0.00 | 0.00 | 74 | 1019.9 |
| 20260503013343 | 12 | 337 | 4.8 | 8.0 | 0.00 | 0.00 | 0.00 | 74 | 1019.9 |
| 20260503012836 | 12 | 329 | 8.0 | 9.7 | 0.00 | 0.00 | 0.00 | 74 | 1020.1 |
| 20260503012334 | 12 | 326 | 6.4 | 9.7 | 0.00 | 0.00 | 0.00 | 74 | 1019.9 |
| 20260503011825 | 12 | 331 | 6.4 | 8.0 | 0.00 | 0.00 | 0.00 | 73 | 1020.0 |
| 20260503011324 | 12 | 340 | 6.4 | 8.0 | 0.00 | 0.00 | 0.00 | 72 | 1020.0 |
| 20260503010841 | 12 | 343 | 4.8 | 8.0 | 0.00 | 0.00 | 0.00 | 72 | 1020.1 |
| 20260503010335 | 12 | 342 | 4.8 | 8.0 | 0.00 | 0.00 | 0.00 | 71 | 1020.1 |
| 20260503005831 | 12 | 322 | 6.4 | 9.7 | 0.00 | 0.00 | 0.00 | 71 | 1020.1 |
| 20260503005324 | 12 | 321 | 8.0 | 9.7 | 0.00 | 0.00 | 0.00 | 71 | 1020.2 |
| 20260503004824 | 12 | 322 | 8.0 | 9.7 | 0.00 | 0.00 | 0.00 | 71 | 1020.2 |
| 20260503004341 | 12 | 324 | 6.4 | 8.0 | 0.00 | 0.00 | 0.00 | 70 | 1020.2 |
| 20260503003833 | 12 | 329 | 6.4 | 8.0 | 0.00 | 0.00 | 0.00 | 71 | 1020.3 |
| 20260503003331 | 12 | 333 | 6.4 | 8.0 | 0.00 | 0.00 | 0.00 | 72 | 1020.3 |
| 20260503002843 | 12 | 339 | 6.4 | 6.4 | 0.00 | 0.00 | 0.00 | 72 | 1020.4 |
| 20260503002343 | 12 | 340 | 4.8 | 9.7 | 0.00 | 0.00 | 0.00 | 72 | 1020.4 |
| 20260503001840 | 12 | 338 | 4.8 | 9.7 | 0.00 | 0.00 | 0.00 | 71 | 1020.4 |
| 20260503001335 | 12 | 318 | 8.0 | 9.7 | 0.00 | 0.00 | 0.00 | 71 | 1020.5 |
| 20260503000831 | 12 | 342 | 4.8 | 8.0 | 0.00 | 0.00 | 0.00 | 71 | 1020.5 |
| 20260503000327 | 12 | 325 | 4.8 | 9.7 | 0.00 | 0.00 | 0.00 | 71 | 1020.5 |
| 20260502235844 | 12 | 325 | 8.0 | 9.7 | 0.00 | 0.00 | 0.00 | 71 | 1020.5 |
| 20260502235336 | 12 | 323 | 8.0 | 9.7 | 0.00 | 0.00 | 0.00 | 70 | 1020.6 |
| 20260502234832 | 12 | 318 | 8.0 | 9.7 | 0.00 | 0.00 | 0.00 | 70 | 1020.6 |
| 20260502234330 | 12 | 340 | 6.4 | 9.7 | 0.00 | 0.00 | 0.00 | 70 | 1020.7 |
| 20260502233843 | 12 | 319 | 8.0 | 9.7 | 0.00 | 0.00 | 0.00 | 69 | 1020.7 |
| 20260502233344 | 12 | 322 | 8.0 | 9.7 | 0.00 | 0.00 | 0.00 | 70 | 1020.7 |
| 20260502232840 | 12 | 320 | 8.0 | 9.7 | 0.00 | 0.00 | 0.00 | 70 | 1020.8 |
| 20260502232333 | 12 | 326 | 8.0 | 9.7 | 0.00 | 0.00 | 0.00 | 70 | 1020.8 |
| 20260502231832 | 12 | 325 | 6.4 | 8.0 | 0.00 | 0.00 | 0.00 | 70 | 1020.7 |
| 20260502231328 | 12 | 327 | 6.4 | 8.0 | 0.00 | 0.00 | 0.00 | 70 | 1020.8 |
| 20260502230828 | 12 | 331 | 4.8 | 8.0 | 0.00 | 0.00 | 0.00 | 70 | 1020.8 |
| 20260502230326 | 12 | 333 | 6.4 | 8.0 | 0.00 | 0.00 | 0.00 | 71 | 1020.9 |
| 20260502225838 | 12 | 331 | 6.4 | 8.0 | 0.00 | 0.00 | 0.00 | 71 | 1020.9 |
| 20260502225335 | 12 | 331 | 6.4 | 8.0 | 0.00 | 0.00 | 0.00 | 70 | 1020.9 |
| 20260502224828 | 12 | 329 | 8.0 | 8.0 | 0.00 | 0.00 | 0.00 | 70 | 1020.9 |
| 20260502224344 | 12 | 319 | 6.4 | 8.0 | 0.00 | 0.00 | 0.00 | 70 | 1020.9 |
| 20260502223842 | 12 | 329 | 6.4 | 8.0 | 0.00 | 0.00 | 0.00 | 71 | 1020.9 |
| 20260502223336 | 12 | 319 | 6.4 | 8.0 | 0.00 | 0.00 | 0.00 | 71 | 1020.8 |
| 20260502222833 | 12 | 328 | 6.4 | 8.0 | 0.00 | 0.00 | 0.00 | 71 | 1020.9 |
| 20260502222328 | 12 | 333 | 6.4 | 8.0 | 0.00 | 0.00 | 0.00 | 70 | 1021.0 |
| 20260502221826 | 12 | 327 | 6.4 | 9.7 | 0.00 | 0.00 | 0.00 | 70 | 1021.0 |
| 20260502221344 | 12 | 333 | 4.8 | 9.7 | 0.00 | 0.00 | 0.00 | 70 | 1021.0 |
| 20260502220839 | 12 | 325 | 6.4 | 9.7 | 0.00 | 0.00 | 0.00 | 69 | 1021.0 |
| 20260502220335 | 12 | 327 | 4.8 | 8.0 | 0.00 | 0.00 | 0.00 | 69 | 1021.0 |
| 20260502215837 | 12 | 333 | 4.8 | 9.7 | 0.00 | 0.00 | 0.00 | 69 | 1021.1 |
| 20260502215338 | 13 | 338 | 6.4 | 9.7 | 0.00 | 0.00 | 0.00 | 68 | 1021.1 |
| 20260502214835 | 12 | 320 | 8.0 | 9.7 | 0.00 | 0.00 | 0.00 | 69 | 1021.0 |
| 20260502214329 | 12 | 325 | 8.0 | 9.7 | 0.00 | 0.00 | 0.00 | 69 | 1021.0 |
| 20260502213831 | 12 | 319 | 6.4 | 8.0 | 0.00 | 0.00 | 0.00 | 69 | 1021.0 |
| 20260502213326 | 12 | 317 | 6.4 | 8.0 | 0.00 | 0.00 | 0.00 | 68 | 1021.0 |
| 20260502212842 | 13 | 319 | 6.4 | 8.0 | 0.00 | 0.00 | 0.00 | 67 | 1021.0 |
| 20260502212338 | 13 | 319 | 6.4 | 8.0 | 0.00 | 0.00 | 0.00 | 66 | 1021.0 |
| 20260502211831 | 13 | 336 | 6.4 | 9.7 | 0.00 | 0.00 | 0.00 | 65 | 1021.0 |
| 20260502211329 | 13 | 321 | 8.0 | 9.7 | 0.00 | 0.00 | 0.00 | 65 | 1021.1 |
| 20260502210827 | 13 | 318 | 8.0 | 9.7 | 0.00 | 0.00 | 0.00 | 66 | 1021.1 |
| 20260502210327 | 13 | 313 | 6.4 | 9.7 | 0.00 | 0.00 | 0.00 | 66 | 1021.0 |
| 20260502205835 | 13 | 321 | 6.4 | 9.7 | 0.00 | 0.00 | 0.00 | 67 | 1021.1 |
| 20260502205326 | 13 | 339 | 4.8 | 9.7 | 0.00 | 0.00 | 0.00 | 67 | 1021.1 |
| 20260502204840 | 13 | 327 | 8.0 | 9.7 | 0.00 | 0.00 | 0.00 | 67 | 1021.2 |
| 20260502204335 | 13 | 327 | 4.8 | 8.0 | 0.00 | 0.00 | 0.00 | 67 | 1021.2 |
| 20260502203830 | 13 | 333 | 4.8 | 9.7 | 0.00 | 0.00 | 0.00 | 67 | 1021.2 |
| 20260502203329 | 13 | 334 | 6.4 | 9.7 | 0.00 | 0.00 | 0.00 | 67 | 1021.2 |
| 20260502202839 | 13 | 340 | 6.4 | 8.0 | 0.00 | 0.00 | 0.00 | 67 | 1021.3 |
| 20260502202334 | 13 | 327 | 4.8 | 9.7 | 0.00 | 0.00 | 0.00 | 67 | 1021.3 |
| 20260502201828 | 13 | 321 | 6.4 | 9.7 | 0.00 | 0.00 | 0.00 | 66 | 1021.3 |
| 20260502201326 | 13 | 336 | 6.4 | 14.5 | 0.00 | 0.00 | 0.00 | 66 | 1021.3 |
| 20260502200825 | 13 | 321 | 9.7 | 14.5 | 0.00 | 0.00 | 0.00 | 66 | 1021.3 |
| 20260502200340 | 13 | 322 | 9.7 | 12.9 | 0.00 | 0.00 | 0.00 | 66 | 1021.3 |
| 20260502195836 | 13 | 327 | 8.0 | 9.7 | 0.00 | 0.00 | 0.00 | 65 | 1021.2 |
| 20260502195333 | 13 | 334 | 8.0 | 9.7 | 0.00 | 0.00 | 0.00 | 65 | 1021.2 |
| 20260502194831 | 13 | 325 | 6.4 | 9.7 | 0.00 | 0.00 | 0.00 | 66 | 1021.2 |
| 20260502194330 | 13 | 332 | 6.4 | 9.7 | 0.00 | 0.00 | 0.00 | 66 | 1021.1 |
| 20260502193841 | 13 | 326 | 8.0 | 9.7 | 0.00 | 0.00 | 0.00 | 65 | 1021.1 |
| 20260502193341 | 13 | 329 | 6.4 | 9.7 | 0.00 | 0.00 | 0.00 | 65 | 1021.1 |
| 20260502192834 | 13 | 317 | 6.4 | 8.0 | 0.00 | 0.00 | 0.00 | 64 | 1021.0 |
| 20260502192334 | 14 | 322 | 4.8 | 8.0 | 0.00 | 0.00 | 0.00 | 64 | 1021.0 |
| 20260502191830 | 14 | 338 | 4.8 | 9.7 | 0.00 | 0.00 | 0.00 | 64 | 1020.9 |
| 20260502191341 | 14 | 325 | 8.0 | 9.7 | 0.00 | 0.00 | 0.00 | 63 | 1020.9 |
| 20260502190834 | 14 | 316 | 6.4 | 9.7 | 0.00 | 0.00 | 0.00 | 64 | 1020.8 |
| 20260502190344 | 13 | 317 | 8.0 | 9.7 | 0.00 | 0.00 | 0.00 | 64 | 1020.8 |
| 20260502185840 | 14 | 330 | 8.0 | 8.0 | 0.00 | 0.00 | 0.00 | 64 | 1020.7 |
| 20260502185338 | 14 | 344 | 4.8 | 6.4 | 0.00 | 0.00 | 0.00 | 64 | 1020.8 |
| 20260502184838 | 14 | 17 | 4.8 | 6.4 | 0.00 | 0.00 | 0.00 | 64 | 1020.8 |
| 20260502184334 | 15 | 325 | 4.8 | 9.7 | 0.00 | 0.00 | 0.00 | 64 | 1020.8 |
| 20260502183828 | 15 | 332 | 6.4 | 9.7 | 0.00 | 0.00 | 0.00 | 63 | 1020.8 |
| 20260502183324 | 15 | 331 | 6.4 | 8.0 | 0.00 | 0.00 | 0.00 | 63 | 1020.7 |
| 20260502182841 | 15 | 324 | 6.4 | 8.0 | 0.00 | 0.00 | 0.00 | 62 | 1020.7 |
| 20260502182337 | 16 | 336 | 3.2 | 6.4 | 0.00 | 0.00 | 0.00 | 62 | 1020.7 |
| 20260502181837 | 16 | 333 | 3.2 | 4.8 | 0.00 | 0.00 | 0.00 | 61 | 1020.7 |